This is the latest recevied weather packets stored in our database for station/object W5CRT. If no packets are shown the sender has not sent any weather packets the latest 10 day(s).
| Time | Temp. | Humidity | Pressure | Rain* | Wind** | Luminosity | Snow |
|---|---|---|---|---|---|---|---|
| 1777224672 | 28.33° C | 68% | 1006.7 hPa | 0 mm | - | 600 W/m² | - |
| 1777224372 | 27.78° C | 69% | 1006.9 hPa | 0 mm | - | 718 W/m² | - |
| 1777224069 | 27.78° C | 70% | 1007 hPa | 0 mm | - | 581 W/m² | - |
| 1777223766 | 28.33° C | 69% | 1007.1 hPa | 0 mm | - | 681 W/m² | - |
| 1777223461 | 28.33° C | 67% | 1006.9 hPa | 0 mm | - | 1020 W/m² | - |
| 1777223160 | 28.33° C | 67% | 1007.1 hPa | 0 mm | - | 947 W/m² | - |
| 1777222856 | 28.33° C | 67% | 1007.1 hPa | 0 mm | - | 995 W/m² | - |
| 1777222554 | 27.78° C | 70% | 1007.3 hPa | 0 mm | - | 1008 W/m² | - |
| 1777222251 | 27.22° C | 72% | 1007.1 hPa | 0 mm | - | 978 W/m² | - |
| 1777221950 | 26.67° C | 72% | 1007.2 hPa | 0 mm | - | 752 W/m² | - |
| 1777221644 | 26.67° C | 73% | 1007 hPa | 0 mm | - | 516 W/m² | - |
| 1777221341 | 27.22° C | 71% | 1006.8 hPa | 0 mm | - | 359 W/m² | - |
| 1777221039 | 27.22° C | 72% | 1006.8 hPa | 0 mm | - | 572 W/m² | - |
| 1777220739 | 26.67° C | 72% | 1006.9 hPa | 0 mm | - | 461 W/m² | - |
| 1777220435 | 26.67° C | 73% | 1006.9 hPa | 0 mm | - | 422 W/m² | - |
| 1777220135 | 26.67° C | 73% | 1006.6 hPa | 0 mm | - | 464 W/m² | - |
| 1777219832 | 26.67° C | 72% | 1006.9 hPa | 0 mm | - | 390 W/m² | - |
| 1777219529 | 26.67° C | 71% | 1006.9 hPa | 0 mm | - | 454 W/m² | - |
| 1777219226 | 26.67° C | 73% | 1007.1 hPa | 0 mm | - | 447 W/m² | - |
| 1777218921 | 26.67° C | 73% | 1007.2 hPa | 0 mm | - | 455 W/m² | - |
| 1777218617 | 26.67° C | 74% | 1007.2 hPa | 0 mm | - | 444 W/m² | - |
| 1777218312 | 26.67° C | 74% | 1007.3 hPa | 0 mm | - | 754 W/m² | - |
* Rain latest hour (hover to see other rain measurements)
** Current wind speed in m/s (hover to see current wind gust speed)